Theta_e
341 341 341 339 338 340 338 335 333 332 332 333 333 339 335 338 342 341 341 339 341 341 337 338 334 330 325 329 328 326 324 323 326 331 329 334 331 335 341 344 348 342 339
339 341 340 341 338 333 333 331 333 330 332 334 342 336 336 339 338 341 340 341 340 340 340 335 329 329 337 338 332 323 322 324 324 328 330 329 330 337 344 347 347 335 334
341 341 340 340 331 329 328 328 329 332 334 341 341 339 342 342 341 342 343 342 342 342 340 339 333 336 338 340 334 326 323 325 327 342 344 345 331 336 342 344 335 339 336
344 342 341 341 341 339 331 329 333 333 338 340 334 334 333 334 332 332 332 333 341 343 339 338 338 340 338 338 337 329 338 343 343 340 346 345 339 336 339 335 334 334 335
345 348 343 343 341 336 333 336 334 335 340 334 333 334 335 338 335 335 336 335 336 338 338 339 338 339 338 335 333 328 340 345 344 342 343 343 340 336 331 333 329 336 339
349 347 342 343 342 337 337 334 335 342 336 333 334 335 338 340 342 341 336 338 339 340 340 339 339 340 338 336 337 330 337 342 345 346 344 343 334 328 339 341 339 334 336
349 346 344 341 338 335 332 332 341 339 333 333 336 337 338 340 342 341 339 340 340 341 341 341 341 342 342 341 340 338 339 340 344 343 343 336 330 331 334 336 337 334 334
351 348 345 341 334 331 331 340 339 332 331 333 338 337 337 337 338 339 338 341 342 343 342 342 341 336 334 334 340 339 340 340 342 345 343 341 338 328 333 335 336 336 335
346 348 344 335 332 331 331 334 333 332 331 335 338 337 337 336 337 338 338 341 342 343 344 343 343 343 338 339 336 343 341 344 341 338 342 336 335 330 331 334 335 333 332
345 345 344 336 344 332 329 330 332 331 334 337 337 338 339 342 346 341 337 340 342 339 342 342 342 342 341 340 340 344 345 343 339 344 344 343 333 327 331 336 329 330 327
346 345 347 344 344 342 330 329 332 336 336 338 344 349 348 351 348 346 339 342 342 343 343 343 344 344 338 341 345 344 344 347 342 344 343 327 330 328 328 328 334 329 328
344 345 345 345 347 344 344 329 332 339 342 342 346 347 349 350 349 348 341 341 342 343 342 342 343 346 340 346 347 345 344 348 345 344 344 325 327 333 331 330 331 331 325
344 343 345 345 346 345 345 333 344 343 345 350 351 349 351 350 347 350 349 349 349 349 349 348 342 348 348 347 347 349 345 340 347 345 337 335 324 331 331 332 335 334 331
343 343 344 345 345 346 347 342 345 346 347 349 343 348 344 349 350 348 349 350 349 350 350 349 347 348 348 342 346 346 347 341 344 343 338 336 336 326 325 328 328 332 331
344 344 343 346 344 346 346 345 345 345 346 348 350 342 350 351 345 350 350 346 351 350 340 347 350 349 346 345 343 339 343 340 344 344 340 330 331 336 335 329 327 328 332
346 345 344 346 347 345 346 345 346 345 344 346 346 349 341 352 351 348 352 350 350 350 346 345 344 348 349 346 345 337 340 340 342 343 343 338 328 330 334 335 335 334 330
347 345 346 345 348 343 346 347 347 346 346 344 346 348 345 344 350 351 348 350 350 349 347 346 349 345 343 343 340 343 340 340 338 336 340 341 338 333 331 335 338 338 336
345 345 346 347 348 346 345 349 347 349 346 345 344 345 341 339 348 347 352 351 351 352 349 349 346 343 340 342 340 340 337 336 338 335 342 343 341 341 332 334 334 334 334
346 346 345 346 347 348 348 349 347 347 346 344 344 344 347 342 343 344 351 342 350 349 348 346 345 346 344 341 340 338 335 339 340 339 339 342 338 340 342 340 336 336 335
346 347 345 347 347 348 348 348 350 348 346 345 344 344 348 349 342 345 351 352 349 352 350 348 345 343 346 340 336 336 338 339 339 338 337 338 340 343 342 343 342 339 338
347 347 347 348 347 348 349 349 351 346 346 345 344 344 349 349 353 349 349 354 348 349 347 340 341 343 346 340 335 337 337 339 340 338 341 338 340 340 342 339 340 342 343
347 347 347 347 347 350 348 350 347 348 346 345 344 344 347 350 350 349 349 352 352 351 351 347 349 346 347 336 338 338 339 337 338 341 340 340 339 338 336 337 341 341 341
347 347 347 348 349 348 350 349 349 347 346 346 344 345 348 350 354 352 353 350 351 348 352 348 339 346 346 341 336 340 341 337 340 339 336 339 336 336 336 337 339 341 341
347 346 347 347 348 349 348 349 348 345 346 345 346 345 348 350 348 356 350 352 348 347 351 349 348 349 344 345 335 337 342 344 339 337 338 341 338 338 336 339 338 330 337
346 348 347 346 347 348 345 349 348 347 344 345 345 345 347 352 352 349 355 354 351 345 352 352 352 345 343 346 338 337 336 339 340 340 339 339 339 340 341 338 339 339 337
346 348 350 348 348 346 344 339 349 348 346 344 346 346 348 349 352 353 351 354 355 348 348 352 350 347 349 344 341 338 337 333 338 337 341 339 340 340 340 341 339 338 339
Wind_Speed
24 24 23 21 21 21 22 22 19 16 15 13 12 14 13 14 14 14 13 12 12 12 10 9 9 8 10 11 9 6 6 6 7 7 7 9 10 13 13 13 13 3 8
28 22 24 21 21 21 22 21 16 14 13 13 13 13 15 14 13 13 14 13 12 12 11 11 11 13 12 12 13 10 8 8 10 11 13 10 11 13 11 13 13 6 9
26 23 24 22 21 20 19 18 15 13 13 14 13 13 13 12 11 12 13 13 12 12 11 11 11 12 10 10 13 14 15 15 14 12 13 8 7 11 8 8 7 9 11
21 23 23 22 20 20 19 18 15 13 14 13 12 12 11 11 11 11 12 12 12 12 12 12 12 12 11 11 12 14 16 17 12 10 8 10 4 9 9 8 8 10 9
20 18 23 22 20 20 19 17 15 14 13 12 11 11 12 12 12 13 12 12 13 12 12 11 11 10 10 12 12 13 17 18 14 14 12 10 4 10 11 12 10 10 10
22 20 23 22 20 20 18 16 15 14 12 11 11 12 12 12 12 12 13 13 14 13 12 12 10 10 9 9 10 13 16 14 12 14 11 8 6 9 10 11 7 9 9
23 21 24 22 21 19 17 15 15 13 11 10 11 11 11 11 12 13 15 15 15 14 13 12 10 9 8 7 9 12 12 15 12 8 1 6 6 9 10 10 9 9 9
25 23 24 21 20 18 17 15 14 12 11 10 10 11 12 13 14 14 15 15 15 14 13 12 11 10 11 11 8 11 14 16 12 9 4 4 6 8 11 10 10 9 9
23 23 23 22 19 18 17 15 13 11 10 10 10 11 13 14 13 12 12 13 14 13 13 13 11 10 10 12 13 14 15 11 12 4 4 6 5 7 9 10 9 9 9
26 22 20 21 18 17 16 15 12 11 10 11 12 16 17 16 14 10 10 10 11 11 11 11 10 11 10 13 13 15 13 12 12 9 4 3 2 6 9 8 8 8 8
26 23 20 20 16 14 14 14 13 11 12 12 15 15 15 11 10 7 6 6 8 9 10 10 8 9 13 13 14 11 8 7 10 7 2 1 2 5 7 7 8 8 7
29 24 21 19 16 13 12 12 12 12 10 9 9 2 7 10 8 5 8 6 7 7 10 5 7 10 13 10 10 13 11 4 16 4 2 1 3 5 6 7 6 6 6
28 26 23 22 18 15 17 8 7 7 3 2 10 9 4 10 5 1 4 6 5 10 5 3 4 7 9 7 3 1 7 2 8 4 5 3 2 4 5 5 5 5 5
28 28 25 27 20 17 17 10 8 5 8 7 3 5 5 5 1 2 3 4 2 7 5 7 9 7 5 10 6 12 9 4 3 2 3 4 0 3 5 5 5 4 4
29 27 28 25 22 20 14 14 11 11 9 11 6 3 5 8 1 2 3 5 1 2 0 5 3 5 5 6 3 8 3 5 5 2 3 5 4 1 3 4 5 4 4
28 26 28 24 21 24 20 16 11 13 10 9 4 7 5 3 2 2 5 4 1 3 6 2 5 4 6 7 6 6 4 3 1 4 2 4 4 1 1 3 3 4 3
29 29 27 26 21 26 23 18 16 13 9 11 8 11 9 10 5 3 4 3 1 3 6 5 3 5 5 4 3 4 2 0 4 5 2 5 3 6 3 2 2 3 3
31 31 26 22 21 21 24 20 19 12 11 10 9 11 7 8 9 5 3 4 2 2 5 2 4 5 5 2 1 4 3 3 3 7 1 4 3 2 6 6 5 2 1
30 32 30 24 25 21 21 19 18 13 15 12 11 10 11 7 8 5 4 6 3 1 9 5 3 3 1 2 2 3 6 3 3 3 7 2 1 3 2 4 4 4 3
31 30 31 27 25 24 20 19 15 17 17 15 12 11 15 11 10 6 3 3 2 2 2 4 2 4 4 4 6 6 1 2 7 4 3 2 5 2 2 2 4 4 2
32 33 33 30 29 27 24 23 21 19 17 15 15 13 13 13 9 11 8 8 7 4 4 3 4 3 2 4 8 8 2 7 6 3 2 9 8 5 7 7 6 1 4
36 36 35 36 33 29 28 24 22 19 17 16 16 16 19 16 11 13 9 3 4 7 9 3 9 8 4 4 7 8 8 7 5 8 7 8 5 10 4 2 4 4 2
39 39 38 38 36 36 30 27 21 20 19 20 17 17 20 18 15 10 13 8 9 9 7 2 5 7 6 3 6 3 3 6 12 6 8 7 7 4 2 3 5 3 2
39 41 40 38 39 38 35 26 29 29 26 25 20 19 20 18 14 16 14 12 13 8 9 5 2 6 6 7 2 9 3 2 6 10 8 11 9 7 4 4 2 1 7
40 40 41 39 38 38 37 32 27 29 27 21 21 19 21 21 19 16 17 15 14 12 10 7 9 8 8 7 2 5 7 3 2 5 14 11 6 10 9 10 7 4 2
39 40 39 40 39 38 37 38 33 30 29 26 22 24 22 23 21 19 19 18 16 11 16 13 15 11 12 10 9 7 5 7 4 6 9 15 12 13 10 8 11 7 7
Wind_Direction
145 137 132 133 133 134 141 140 132 119 113 108 98 93 88 86 86 83 85 94 100 100 108 100 91 84 87 81 72 82 110 133 151 152 126 117 111 110 102 97 87 48 83
140 137 132 132 135 139 143 143 137 121 113 106 95 91 89 88 88 85 79 83 96 101 102 98 95 98 95 71 66 74 96 105 104 99 93 91 112 122 105 112 131 91 98
139 144 135 138 139 144 146 147 141 127 113 109 101 95 92 93 89 87 83 86 95 100 102 100 101 88 77 69 67 73 85 95 98 99 94 68 110 124 119 97 85 99 99
143 142 143 142 144 148 146 145 137 130 119 110 103 96 98 97 91 91 88 92 96 99 100 100 92 85 76 77 81 80 95 82 74 106 98 111 99 114 108 95 110 98 96
148 155 147 147 145 147 144 142 136 127 120 113 102 95 94 92 96 92 92 92 96 96 99 100 98 89 83 80 83 89 102 88 84 91 81 125 68 108 110 101 99 107 104
155 156 150 148 149 148 145 142 132 126 124 116 103 99 99 98 92 91 97 98 96 98 96 99 102 93 85 81 80 94 106 92 95 116 131 128 61 108 107 115 105 114 109
148 162 152 153 151 150 146 142 134 134 125 118 108 103 104 102 96 100 102 102 99 96 97 102 100 92 82 84 88 104 103 99 93 123 86 93 95 104 108 107 116 114 113
150 150 154 156 153 152 145 140 143 134 127 119 106 106 103 101 100 103 101 102 100 97 98 98 95 91 79 81 94 102 102 97 82 126 54 60 114 102 106 108 108 110 109
151 158 157 156 156 155 150 148 141 138 129 120 113 108 101 94 92 99 103 106 101 97 100 97 90 86 84 79 89 110 114 110 114 141 72 104 117 116 112 110 109 112 108
156 157 154 159 153 158 153 148 147 142 130 124 120 115 106 99 84 86 102 106 100 91 95 87 94 87 84 88 83 102 110 106 111 129 174 339 104 125 129 121 114 114 112
158 158 160 158 164 157 157 152 151 134 132 135 135 119 111 106 90 79 89 108 92 81 79 72 79 89 97 103 101 99 91 139 131 164 168 305 162 137 130 135 126 118 120
159 163 167 162 163 159 160 158 145 131 129 138 96 22 126 104 101 109 87 97 94 82 97 115 55 105 89 109 94 104 81 353 120 133 6 40 171 153 132 132 133 131 126
160 167 169 170 164 156 186 170 129 136 138 223 137 170 126 130 162 176 96 81 56 50 88 119 71 108 70 59 34 228 110 206 108 70 43 59 141 173 157 152 146 142 131
168 174 171 176 168 174 187 165 164 184 177 225 170 139 115 117 177 140 139 189 137 205 52 37 57 97 121 102 5 108 127 326 241 99 33 48 53 165 174 171 168 160 157
177 179 173 181 181 178 168 173 179 185 182 208 227 189 140 254 171 48 51 158 159 57 183 61 88 133 102 99 79 95 114 72 186 153 105 55 355 227 177 169 164 171 175
181 181 178 185 192 187 176 188 181 182 184 188 212 250 195 148 232 171 188 145 174 81 64 72 103 162 90 74 107 134 77 127 82 68 81 71 55 97 232 191 170 187 179
184 181 185 184 203 203 188 185 182 193 190 199 192 231 246 185 220 203 82 91 87 0 80 63 67 29 105 103 110 126 123 117 223 218 31 356 71 88 86 67 236 206 195
181 186 185 188 200 208 197 191 185 184 199 206 207 244 248 206 189 158 207 156 78 140 143 106 46 134 71 51 280 67 34 337 102 150 96 324 324 265 97 87 67 38 213
183 188 188 192 199 211 198 199 191 191 204 211 213 227 253 249 195 198 235 271 89 31 109 99 162 107 121 87 256 141 120 222 181 125 151 112 289 270 281 86 85 67 28
188 190 190 195 195 209 209 195 212 190 217 198 215 212 245 257 243 214 229 257 165 106 124 164 180 118 87 273 69 126 194 122 144 73 116 268 175 211 109 16 32 7 334
189 193 196 193 193 205 204 207 195 207 215 216 208 209 240 250 248 232 203 238 236 229 222 274 176 72 144 344 116 119 101 171 128 136 135 103 121 76 81 21 356 274 322
191 196 200 195 197 201 208 209 201 205 213 227 217 215 224 243 239 242 230 246 210 228 241 212 196 212 183 181 176 186 169 154 152 145 94 103 99 147 131 178 274 279 33
192 197 203 201 199 203 207 201 203 205 209 223 221 221 228 231 231 246 233 210 230 221 248 226 170 169 171 178 195 169 155 178 165 189 177 159 151 169 256 356 166 170 233
197 200 206 209 203 208 201 204 203 204 211 207 224 221 228 237 233 229 241 222 227 215 236 229 230 191 195 215 290 215 217 169 161 179 179 194 194 197 205 219 262 142 192
198 197 205 213 214 211 209 198 212 212 211 219 215 224 221 233 242 226 230 233 246 217 212 217 222 211 194 179 192 227 229 167 199 167 182 207 219 216 227 203 261 282 217
199 199 199 210 217 217 217 209 204 218 213 211 219 215 222 226 236 239 223 232 236 237 198 213 238 239 191 200 184 204 221 219 198 211 239 219 221 211 236 218 201 258 252